Tracking 26325 objects as of 28-Nov-2022
HD Live streaming from Space Station
objects crossing your sky now

WESTFORD NEEDLES

Track WESTFORD NEEDLES now!
10-day predictions
WESTFORD NEEDLES is classified as:


NORAD ID: 21660
Int'l Code: 1963-014FG
Perigee: 2,011.1 km
Apogee: 5,094.6 km
Inclination: 86.5 °
Period: 164.0 minutes
Semi major axis: 9923 km
RCS: 0.1099 m2 (medium)
Launch date: May 9, 1963
Source: United States (US)
Launch site: AIR FORCE WESTERN TEST RANGE (AFWTR)
aabbcc
Your satellite tracking list
Your tracking list is empty




NASA's NSSDC Master Catalog

Two Line Element Set (TLE):
1 21660U 63014FG  22331.25865580  .00001877  00000-0  22447+0 0  9990
2 21660  86.5409  71.9892 1553581  12.2774   9.6887  8.78177141951889
Source of the keplerian elements: AFSPC